QPF
0.00 0.00 0.00 0.00 0.00 0.00 0.00 0.00 0.00 0.02 0.02 0.00 0.00 0.00 0.00 0.00 0.01 0.03 0.03 0.03 0.04 0.03
0.00 0.00 0.00 0.00 0.00 0.00 0.00 0.00 0.03 0.05 0.01 0.01 0.00 0.00 0.00 0.00 0.01 0.01 0.05 0.03 0.01 0.00
0.00 0.00 0.00 0.00 0.00 0.00 0.00 0.01 0.03 0.03 0.01 0.00 0.00 0.01 0.00 0.01 0.01 0.00 0.01 0.00 0.00 0.00
0.00 0.00 0.00 0.00 0.00 0.00 0.00 0.01 0.01 0.01 0.00 0.01 0.00 0.00 0.01 0.00 0.00 0.00 0.00 0.00 0.00 0.00
0.00 0.00 0.00 0.00 0.00 0.00 0.01 0.00 0.00 0.01 0.01 0.00 0.00 0.01 0.00 0.00 0.00 0.00 0.00 0.00 0.00 0.00
0.01 0.01 0.00 0.01 0.01 0.01 0.00 0.00 0.01 0.01 0.00 0.00 0.00 0.00 0.00 0.00 0.00 0.00 0.00 0.00 0.00 0.00
0.02 0.02 0.01 0.02 0.02 0.02 0.01 0.01 0.00 0.00 0.00 0.00 0.00 0.00 0.00 0.00 0.00 0.00 0.01 0.04 0.02 0.00
0.03 0.02 0.01 0.01 0.01 0.01 0.00 0.00 0.00 0.00 0.00 0.00 0.00 0.00 0.00 0.00 0.00 0.01 0.00 0.02 0.02 0.01
0.01 0.00 0.00 0.00 0.00 0.00 0.00 0.00 0.00 0.00 0.00 0.00 0.00 0.00 0.00 0.01 0.00 0.00 0.01 0.03 0.03 0.06
0.01 0.00 0.00 0.00 0.00 0.00 0.00 0.00 0.00 0.00 0.00 0.00 0.00 0.00 0.00 0.00 0.00 0.00 0.00 0.01 0.01 0.00
0.00 0.00 0.00 0.00 0.00 0.00 0.00 0.00 0.00 0.00 0.00 0.00 0.00 0.00 0.00 0.00 0.00 0.00 0.01 0.02 0.02 0.01
0.00 0.00 0.00 0.00 0.00 0.00 0.00 0.00 0.00 0.00 0.00 0.00 0.00 0.00 0.00 0.00 0.00 0.00 0.00 0.08 0.08 0.07
0.00 0.00 0.00 0.00 0.00 0.00 0.00 0.00 0.01 0.00 0.00 0.00 0.00 0.00 0.00 0.00 0.00 0.00 0.00 0.04 0.06 0.03
0.00 0.00 0.00 0.00 0.00 0.00 0.00 0.00 0.00 0.00 0.00 0.00 0.00 0.00 0.00 0.00 0.00 0.00 0.00 0.00 0.00 0.00
MSLP
998.31 998.92 999.21 999.63 1000.20 1000.69 1001.10 1001.25 1001.65 1002.24 1002.97 1003.53 1004.07 1004.53 1005.00 1005.51 1006.05 1006.53 1007.01 1007.69 1007.96 1008.30
997.79 998.35 998.68 999.09 999.73 1000.37 1000.80 1001.25 1001.77 1002.35 1003.01 1003.50 1003.76 1004.31 1004.82 1005.44 1006.00 1006.41 1006.95 1007.41 1007.80 1008.29
997.31 997.68 998.30 998.91 999.58 1000.28 1000.62 1001.10 1001.79 1002.64 1002.82 1003.27 1003.65 1004.20 1004.71 1005.41 1005.82 1006.31 1006.91 1007.30 1007.87 1008.20
997.02 997.66 998.27 998.93 999.41 999.96 1000.47 1001.05 1001.81 1002.47 1002.73 1003.07 1003.82 1004.27 1004.83 1005.39 1005.84 1006.41 1006.95 1007.31 1007.63 1007.94
996.91 997.61 998.26 998.87 999.27 999.91 1000.66 1001.32 1001.88 1002.21 1002.57 1003.09 1003.76 1004.43 1004.88 1005.45 1005.90 1006.37 1006.84 1007.17 1007.53 1007.83
996.98 997.67 998.43 998.81 999.21 999.97 1000.71 1001.35 1001.78 1002.13 1002.59 1003.12 1003.76 1004.33 1004.89 1005.26 1005.76 1006.22 1006.61 1006.89 1007.24 1007.54
996.97 997.61 998.26 998.78 999.30 999.94 1000.55 1001.16 1001.69 1002.07 1002.57 1003.15 1003.74 1004.38 1004.88 1005.32 1005.69 1006.04 1006.31 1006.56 1006.85 1007.04
997.12 997.56 998.26 998.74 999.41 999.96 1000.58 1001.13 1001.89 1002.49 1003.07 1003.59 1004.12 1004.49 1004.85 1005.25 1005.59 1005.89 1006.23 1006.44 1006.62 1006.75
997.22 997.94 998.56 999.15 999.84 1000.49 1001.15 1001.72 1002.40 1003.08 1003.58 1004.15 1004.68 1005.02 1004.93 1005.12 1005.54 1005.75 1006.12 1006.44 1006.73 1006.91
997.60 998.44 999.11 999.78 1000.33 1001.07 1001.65 1002.27 1002.93 1003.63 1004.11 1004.61 1005.14 1005.31 1005.16 1005.19 1005.37 1005.69 1006.03 1006.35 1006.65 1006.95
997.86 998.80 999.48 1000.14 1000.77 1001.47 1002.16 1002.73 1003.47 1004.13 1004.69 1005.10 1005.55 1005.47 1005.31 1005.36 1005.59 1005.89 1006.11 1006.26 1006.60 1006.76
998.34 999.01 999.69 1000.54 1001.23 1001.84 1002.47 1003.24 1003.95 1004.52 1004.87 1005.27 1005.59 1005.67 1005.52 1005.67 1006.05 1006.35 1006.52 1006.57 1006.76 1007.07
998.56 999.23 1000.03 1000.86 1001.48 1002.12 1002.74 1003.67 1004.19 1004.82 1005.21 1005.52 1005.67 1005.90 1005.96 1006.13 1006.41 1006.68 1006.90 1007.26 1007.38 1007.65
998.78 999.60 1000.39 1001.08 1001.70 1002.46 1003.35 1004.08 1004.71 1005.18 1005.60 1005.76 1005.85 1006.39 1006.40 1006.47 1006.61 1006.84 1007.28 1007.71 1008.08 1008.43
Thickness
5766 5764 5762 5760 5757 5753 5750 5749 5745 5739 5731 5725 5721 5716 5711 5704 5698 5692 5685 5677 5674 5669
5760 5757 5757 5757 5754 5747 5744 5741 5736 5730 5723 5719 5716 5712 5706 5698 5692 5687 5680 5674 5670 5664
5753 5754 5753 5752 5746 5740 5738 5734 5728 5720 5718 5714 5711 5706 5700 5692 5688 5682 5675 5670 5663 5659
5749 5748 5746 5742 5740 5736 5732 5728 5721 5715 5713 5711 5703 5697 5692 5686 5681 5675 5669 5665 5661 5656
5745 5742 5738 5735 5733 5730 5723 5719 5713 5711 5709 5704 5696 5690 5685 5679 5675 5668 5663 5660 5655 5652
5735 5733 5729 5728 5726 5722 5716 5711 5708 5707 5702 5696 5690 5685 5679 5675 5670 5665 5661 5658 5652 5649
5728 5727 5724 5722 5720 5715 5710 5706 5703 5700 5695 5690 5684 5677 5673 5669 5664 5661 5658 5654 5651 5648
5719 5720 5719 5717 5712 5708 5705 5702 5696 5690 5684 5680 5674 5670 5667 5664 5660 5657 5653 5651 5649 5647
5713 5711 5709 5707 5702 5699 5695 5692 5685 5680 5675 5670 5664 5658 5660 5659 5656 5654 5650 5646 5643 5641
5704 5700 5699 5696 5693 5688 5685 5680 5676 5670 5666 5661 5656 5652 5653 5654 5653 5650 5646 5642 5639 5637
5697 5692 5691 5688 5684 5681 5677 5672 5667 5662 5657 5653 5649 5649 5650 5650 5648 5644 5640 5638 5637 5635
5688 5686 5685 5680 5677 5674 5670 5664 5658 5654 5652 5649 5647 5644 5645 5644 5641 5637 5635 5634 5634 5633
5683 5682 5678 5674 5671 5667 5662 5656 5653 5648 5646 5643 5643 5637 5637 5638 5635 5632 5630 5628 5628 5627
5680 5676 5670 5669 5666 5659 5654 5649 5644 5642 5639 5639 5638 5632 5630 5631 5631 5629 5627 5624 5622 5620